Regional Weather Roundup
Issued by NWS Sterling, VA

Home | Current Version | Previous Version | Graphics & Text | Print | Product List | Glossary On
Versions: 1 2 3 4 5 6 7 8 9 10 11 12 13 14 15 16 17 18 19 20 21 22 23 24 25 26 27 28 29 30 31 32 33 34 35 36 37 38 39 40 41 42 43 44 45 46
000
ASUS41 KLWX 280010
RWRLWX

REGIONAL WEATHER ROUNDUP
NATIONAL WEATHER SERVICE BALTIMORE MD/WASHINGTON DC
800 PM EDT THU AUG 27 2015

Note: "FAIR" indicates few or no clouds below 12,000 feet
with no significant weather and/or obstructions to visibility.
 TC=TEMPERATURE CELSIUS

 * =Non NWS site. Station does not report precipitation (e.g. rain,
    snow, etc.), thunder, or fog.

DCZ001-MDZ009-015-VAZ040>042-051-053>054-280100-
WASHINGTON METRO

CITY           SKY/WX    TMP DP  RH WIND       PRES   REMARKS
WASHINGTON NAT PTCLDY    76  55  48 N8        30.10R
DULLES         PTCLDY    73  54  51 N9        30.10S
ANDREWS AFB    CLOUDY    73  59  62 E3        30.09R
FT BELVOIR     CLEAR     70  60  71 CALM      30.10R
QUANTICO       PTCLDY    72  62  71 NW7       30.10R
COLLEGE PARK*  CLEAR     72  59  64 CALM      30.10R
LEESBURG*      CLEAR     73  59  60 N5        30.12R
MANASSAS*      CLEAR     73  55  53 N3        30.10R
GAITHERSBURG*  CLEAR     68  55  64 CALM      30.15

$$

MDZ006>007-011-014-280100-
BALTIMORE METRO

CITY           SKY/WX    TMP DP  RH WIND       PRES   REMARKS
BWI AIRPORT    PTCLDY    73  56  54 N3        30.10R
MD SCIENCE CTR   N/A     75  56  51 MISG      30.10R
ANNAPOLIS      CLEAR     73  61  65 NE3       30.09R
FORT MEADE*    PTCLDY    66  59  77 CALM      30.13R

$$

MDZ012-015-019>023-280100-
MARYLAND EASTERN SHORE

CITY           SKY/WX    TMP DP  RH WIND       PRES   REMARKS
OCEAN CITY     MOCLDY    73  61  65 CALM      30.08S
SALISBURY      MOCLDY    73  58  59 CALM      30.08S
BAY BRIDGE AP*   N/A     72  54  53 CALM      30.10R
CAMBRIDGE*     CLEAR     72  59  64 CALM      30.09R
EASTON*        PTCLDY    72  61  68 CALM      30.13R

$$

MDZ017>025-280100-
SOUTHERN MARYLAND

CITY           SKY/WX    TMP DP  RH WIND       PRES   REMARKS
PATUXENT RIVER MOCLDY    66  61  84 CALM      30.09S
ST INIGOES     PTCLDY    68  63  84 CALM      30.08S
LEONARDTOWN*   MOCLDY    68  55  64 CALM      30.11R

$$

MDZ003>005-280100-
NORTH CENTRAL MARYLAND

CITY           SKY/WX    TMP DP  RH WIND       PRES   REMARKS
FREDERICK*     PTCLDY    68  61  77 NE5       30.13S
HAGERSTOWN APT CLOUDY    72  53  51 N3        30.12S
WESTMINSTER*   MOCLDY    70  57  64 CALM      30.13R

$$

MDZ501>502-280100-
WESTERN MARYLAND

CITY           SKY/WX    TMP DP  RH WIND       PRES   REMARKS
OAKLAND*       CLEAR     55  50  82 CALM      30.21S
CUMBERLAND*    CLOUDY    70  54  56 CALM      30.18R

$$

VAZ025>031-280100-
SHENANDOAH VALLEY

CITY           SKY/WX    TMP DP  RH WIND       PRES   REMARKS
WINCHESTER*    CLEAR     72  54  53 CALM      30.13R
FRONT ROYAL*   MOCLDY    70  55  60 CALM      30.12R
LURAY*         FAIR      68  54  60 NE3       30.12R
NEW MARKET*    CLOUDY    67  58  70 N3        30.11R
STAUNTON*      CLOUDY    76  57  51 CALM      30.13R
WAYNESBORO*    CLOUDY    74  57  55 CALM      30.13R

$$

WVZ021-048>050-054>055-280100-
EASTERN WEST VIRGINIA PANHANDLE

CITY           SKY/WX    TMP DP  RH WIND       PRES   REMARKS
MARTINSBURG    CLEAR     70  53  54 NE3       30.13R
PETERSBURG*    CLOUDY    66  58  73 CALM      30.15R

$$

VAZ036>039-050-280100-
CENTRAL FOOTHILLS

CITY           SKY/WX    TMP DP  RH WIND       PRES   REMARKS
CHARLOTTESVILL PTCLDY    72  59  63 N3        30.10R
CULPEPER*      CLEAR     69  60  74 CALM      30.11R
ORANGE*        CLEAR     72  59  64 CALM      30.11S
GORDONSVILLE*  CLOUDY    70  63  78 CALM      30.10R
WARRENTON*     FAIR      67  60  79 CALM      30.10S

$$

VAZ055>057-280100-
NORTH AND CENTRAL PIEDMONT

CITY           SKY/WX    TMP DP  RH WIND       PRES   REMARKS
FREDERICKSBRG* CLEAR     74  61  63 CALM      30.09R
STAFFORD*      CLEAR     67  60  79 CALM      30.13S

$$

NCZ024-NYZ072-PAZ021-071-VAZ022-071-280100-
OTHER REGIONAL OBSERVATIONS

CITY           SKY/WX    TMP DP  RH WIND       PRES   REMARKS
NEW YORK CITY  CLEAR     74  51  44 VRB5      30.10R
PHILADELPHIA   PTCLDY    76  51  41 N7        30.09R
PITTSBURGH     CLOUDY    67  57  70 CALM      30.16R
ROANOKE        PTCLDY    76  56  49 E7        30.12R
RICHMOND       PTCLDY    74  60  61 E3        30.09R
RALEIGH        PTCLDY    76  60  57 E5        30.08R

$$

ANZ530>537-280100-
MARINE OBSERVATIONS

STATION/POSITION TIME  TEMP    WIND        PRES
                       AIR SEA DIR/SP/G
                 (UTC) (F)     (DEG/KT/KT) (MB)
THOMAS PT LIGHT  2300   75 80   40/  8/ 10 1019.2
BALT KEY BRIDGE  2300   76     350/  6/  7 1018.7R
COVE POINT       2300   76      10/  4/  6 1019.5R
LEWISETTA        2300   76 80   90/  5/  6 1018.4S
SOLOMONS ISLAND  2300      82                N/A
PINEY POINT      2300          120/  5/  6   N/A

$$



USA.gov is the U.S. government's official web portal to all federal, state and local government web resources and services.